sat.trackr.live / text

‹ back to catalog

FOURIER

NORAD 65298 · 2025-185B

PAYLOAD ACTIVE UNKNOWN

§ Identity

Operator
Country
RWA
Launch date
2025-08-23
Launch site
RLLB
Launch vehicle
Mass (kg)
RCS (m²)

External: N2YO · Heavens-Above · Gunter

§ Orbital elements

Epoch: 2026-09-20T04:34:19.050528Z

Period
97.24 min
Inclination
97.9643°
Eccentricity
0.0015353
Mean motion
14.80877531 rev/d
Perigee alt
615.8 km
Apogee alt
637.3 km
Semi-major
7,004.7 km
B*
7.7656e-4
RAAN
345.8183°
Arg perigee
137.4945°
Mean anomaly
222.7459°
Rev number
5,789

§ Raw data

FOURIER1 65298U 25185B   26263.19049827  .00005960  00000+0  77656-3 0  99932 65298  97.9643 345.8183 0015353 137.4945 222.7459 14.80877531 57896

JSON: /api/v1/satellites/65298 · /tle

For live sub-satellite position, see the globe view (requires WebGL).

§ Visibility from observer

Set your observer location to see the next 7 days of passes ≥ 10°. The values pass through the URL so the page stays shareable.

No JS? Fill the form by hand. The geolocation button needs JavaScript.